Time,TemperatureF,DewpointF,PressureIn,WindDirection,WindDirectionDegrees,WindSpeedMPH,WindSpeedGustMPH,Humidity,HourlyPrecipIn,Conditions,Clouds,dailyrainin,SoftwareType,DateUTC
2013-04-07 01:02:00,54.2,49.0,30.12,ENE,73,1.0,4.0,83,0.00,,,0.00,weatherlink.com 1.10,2013-04-07 08:02:00,
2013-04-07 01:52:00,54.3,50.0,30.12,ENE,62,0.0,3.0,85,0.00,,,0.00,weatherlink.com 1.10,2013-04-07 08:52:00,
2013-04-07 02:07:00,53.8,50.0,30.12,North,5,1.0,1.0,86,0.00,,,0.00,weatherlink.com 1.10,2013-04-07 09:07:00,
2013-04-07 02:22:00,54.0,50.0,30.12,North,5,0.0,2.0,86,0.00,,,0.00,weatherlink.com 1.10,2013-04-07 09:22:00,
2013-04-07 02:37:00,54.1,50.0,30.11,ENE,58,1.0,2.0,86,0.00,,,0.00,weatherlink.com 1.10,2013-04-07 09:37:00,
2013-04-07 02:52:00,54.3,50.0,30.11,NNE,31,1.0,2.0,86,0.00,,,0.00,weatherlink.com 1.10,2013-04-07 09:52:00,
2013-04-07 03:07:00,54.5,50.0,30.10,North,356,0.0,2.0,86,0.00,,,0.00,weatherlink.com 1.10,2013-04-07 10:07:00,
2013-04-07 03:22:00,54.4,51.0,30.09,NE,49,0.0,1.0,87,0.00,,,0.00,weatherlink.com 1.10,2013-04-07 10:22:00,
2013-04-07 03:37:00,54.4,51.0,30.09,NE,56,0.0,1.0,87,0.00,,,0.00,weatherlink.com 1.10,2013-04-07 10:37:00,
2013-04-07 03:52:00,54.5,51.0,30.09,NE,56,0.0,1.0,87,0.00,,,0.00,weatherlink.com 1.10,2013-04-07 10:52:00,
2013-04-07 04:08:00,54.4,51.0,30.08,NE,56,0.0,0.0,88,0.00,,,0.00,weatherlink.com 1.10,2013-04-07 11:08:00,
2013-04-07 04:22:00,54.4,51.0,30.08,SE,131,0.0,2.0,88,0.00,,,0.00,weatherlink.com 1.10,2013-04-07 11:22:00,
2013-04-07 04:37:00,54.4,51.0,30.08,SE,131,0.0,1.0,88,0.00,,,0.00,weatherlink.com 1.10,2013-04-07 11:37:00,
2013-04-07 04:52:00,54.5,51.0,30.08,East,101,0.0,1.0,87,0.00,,,0.00,weatherlink.com 1.10,2013-04-07 11:52:00,
2013-04-07 05:07:00,54.5,51.0,30.08,East,101,0.0,1.0,88,0.00,,,0.00,weatherlink.com 1.10,2013-04-07 12:07:00,
2013-04-07 05:22:00,54.4,51.0,30.08,East,101,0.0,0.0,88,0.00,,,0.00,weatherlink.com 1.10,2013-04-07 12:22:00,
2013-04-07 05:38:00,54.1,51.0,30.07,East,101,0.0,0.0,89,0.00,,,0.00,weatherlink.com 1.10,2013-04-07 12:38:00,
2013-04-07 05:53:00,53.9,51.0,30.07,East,101,0.0,0.0,90,0.00,,,0.00,weatherlink.com 1.10,2013-04-07 12:53:00,
2013-04-07 06:08:00,53.7,51.0,30.07,East,101,0.0,0.0,90,0.00,,,0.00,weatherlink.com 1.10,2013-04-07 13:08:00,
2013-04-07 06:23:00,53.7,51.0,30.07,East,101,0.0,0.0,91,0.00,,,0.00,weatherlink.com 1.10,2013-04-07 13:23:00,
2013-04-07 06:38:00,53.7,52.0,30.08,East,101,0.0,0.0,92,0.00,,,0.00,weatherlink.com 1.10,2013-04-07 13:38:00,
2013-04-07 06:53:00,53.6,51.0,30.08,East,101,0.0,0.0,92,0.00,,,0.00,weatherlink.com 1.10,2013-04-07 13:53:00,
2013-04-07 07:08:00,53.6,52.0,30.08,East,101,0.0,0.0,93,0.00,,,0.00,weatherlink.com 1.10,2013-04-07 14:08:00,
2013-04-07 07:23:00,53.8,52.0,30.08,East,101,0.0,0.0,93,0.00,,,0.00,weatherlink.com 1.10,2013-04-07 14:23:00,
2013-04-07 07:38:00,54.2,52.0,30.08,East,101,0.0,0.0,91,0.00,,,0.00,weatherlink.com 1.10,2013-04-07 14:38:00,
2013-04-07 07:53:00,54.9,52.0,30.08,East,101,0.0,0.0,91,0.00,,,0.00,weatherlink.com 1.10,2013-04-07 14:53:00,
2013-04-07 08:08:00,55.7,53.0,30.07,East,101,0.0,0.0,90,0.00,,,0.00,weatherlink.com 1.10,2013-04-07 15:08:00,
2013-04-07 08:23:00,56.3,53.0,30.07,NNW,346,0.0,1.0,88,0.00,,,0.00,weatherlink.com 1.10,2013-04-07 15:23:00,
2013-04-07 08:38:00,56.6,53.0,30.07,West,275,0.0,1.0,86,0.00,,,0.00,weatherlink.com 1.10,2013-04-07 15:38:00,
2013-04-07 08:53:00,57.2,53.0,30.07,West,274,0.0,1.0,85,0.00,,,0.00,weatherlink.com 1.10,2013-04-07 15:53:00,
2013-04-07 09:08:00,57.8,53.0,30.07,West,275,0.0,1.0,83,0.00,,,0.00,weatherlink.com 1.10,2013-04-07 16:08:00,
2013-04-07 09:23:00,58.5,53.0,30.06,WSW,240,0.0,1.0,82,0.00,,,0.00,weatherlink.com 1.10,2013-04-07 16:23:00,
2013-04-07 09:38:00,60.0,54.0,30.06,SW,214,0.0,1.0,81,0.00,,,0.00,weatherlink.com 1.10,2013-04-07 16:38:00,
2013-04-07 09:53:00,59.8,54.0,30.07,ENE,64,0.0,2.0,80,0.00,,,0.00,weatherlink.com 1.10,2013-04-07 16:53:00,
2013-04-07 10:08:00,59.6,54.0,30.07,NE,47,2.0,4.0,81,0.00,,,0.00,weatherlink.com 1.10,2013-04-07 17:08:00,
2013-04-07 10:23:00,58.9,54.0,30.07,North,2,0.0,4.0,85,0.00,,,0.00,weatherlink.com 1.10,2013-04-07 17:23:00,
2013-04-07 10:38:00,59.4,55.0,30.07,ESE,114,1.0,4.0,85,0.00,,,0.00,weatherlink.com 1.10,2013-04-07 17:38:00,
2013-04-07 10:53:00,59.3,55.0,30.07,NNW,341,3.0,5.0,86,0.00,,,0.00,weatherlink.com 1.10,2013-04-07 17:53:00,
2013-04-07 11:08:00,60.1,55.0,30.07,North,351,2.0,4.0,84,0.00,,,0.00,weatherlink.com 1.10,2013-04-07 18:08:00,
2013-04-07 11:23:00,61.2,54.0,30.07,NNE,25,2.0,7.0,78,0.00,,,0.00,weatherlink.com 1.10,2013-04-07 18:23:00,
2013-04-07 11:38:00,63.4,53.0,30.06,NE,40,3.0,6.0,69,0.00,,,0.00,weatherlink.com 1.10,2013-04-07 18:38:00,
2013-04-07 11:53:00,63.9,52.0,30.05,North,355,4.0,8.0,66,0.00,,,0.00,weatherlink.com 1.10,2013-04-07 18:53:00,
2013-04-07 12:23:00,64.8,51.0,30.05,ENE,73,2.0,12.0,61,0.00,,,0.00,weatherlink.com 1.10,2013-04-07 19:23:00,
2013-04-07 12:38:00,64.7,51.0,30.04,ESE,110,1.0,11.0,62,0.00,,,0.00,weatherlink.com 1.10,2013-04-07 19:38:00,
2013-04-07 13:08:00,63.9,50.0,30.02,NE,37,3.0,11.0,62,0.00,,,0.00,weatherlink.com 1.10,2013-04-07 20:08:00,
2013-04-07 13:23:00,63.4,50.0,30.02,ENE,73,6.0,11.0,63,0.00,,,0.00,weatherlink.com 1.10,2013-04-07 20:23:00,
2013-04-07 14:09:00,62.6,50.0,29.99,ENE,60,9.0,11.0,63,0.00,,,0.00,weatherlink.com 1.10,2013-04-07 21:09:00,
2013-04-07 14:39:00,64.1,49.0,29.98,ENE,60,3.0,11.0,59,0.00,,,0.00,weatherlink.com 1.10,2013-04-07 21:39:00,
2013-04-07 15:09:00,62.7,49.0,29.98,SE,143,4.0,12.0,62,0.00,,,0.00,weatherlink.com 1.10,2013-04-07 22:09:00,
2013-04-07 15:24:00,62.7,49.0,29.98,SE,138,8.0,13.0,61,0.00,,,0.00,weatherlink.com 1.10,2013-04-07 22:24:00,
2013-04-07 15:54:00,60.9,49.0,29.97,NNE,23,8.0,13.0,64,0.00,,,0.00,weatherlink.com 1.10,2013-04-07 22:54:00,
2013-04-07 16:09:00,60.8,48.0,29.96,NNE,18,3.0,12.0,64,0.00,,,0.00,weatherlink.com 1.10,2013-04-07 23:09:00,
2013-04-07 16:39:00,60.4,48.0,29.95,NE,44,6.0,12.0,65,0.00,,,0.00,weatherlink.com 1.10,2013-04-07 23:39:00,
2013-04-07 16:54:00,60.0,49.0,29.96,NNE,16,3.0,9.0,66,0.00,,,0.00,weatherlink.com 1.10,2013-04-07 23:54:00,
2013-04-07 17:09:00,59.0,47.0,29.95,NNE,26,7.0,12.0,65,0.00,,,0.00,weatherlink.com 1.10,2013-04-08 00:09:00,
2013-04-07 17:39:00,58.4,48.0,29.93,NW,304,1.0,7.0,68,0.00,,,0.00,weatherlink.com 1.10,2013-04-08 00:39:00,
2013-04-07 17:54:00,57.6,47.0,29.92,North,349,6.0,11.0,69,0.00,,,0.00,weatherlink.com 1.10,2013-04-08 00:54:00,
2013-04-07 18:09:00,56.7,47.0,29.92,ENE,65,6.0,13.0,70,0.00,,,0.00,weatherlink.com 1.10,2013-04-08 01:09:00,
2013-04-07 18:24:00,56.0,47.0,29.91,WNW,293,1.0,13.0,71,0.00,,,0.00,weatherlink.com 1.10,2013-04-08 01:24:00,
2013-04-07 18:39:00,55.3,47.0,29.91,NE,47,1.0,9.0,73,0.00,,,0.00,weatherlink.com 1.10,2013-04-08 01:39:00,
2013-04-07 19:09:00,54.4,46.0,29.91,NNE,25,3.0,10.0,73,0.00,,,0.00,weatherlink.com 1.10,2013-04-08 02:09:00,
2013-04-07 19:24:00,54.1,46.0,29.91,NE,42,3.0,9.0,75,0.00,,,0.00,weatherlink.com 1.10,2013-04-08 02:24:00,
2013-04-07 19:39:00,53.9,46.0,29.90,ENE,68,1.0,8.0,75,0.00,,,0.00,weatherlink.com 1.10,2013-04-08 02:39:00,
2013-04-07 19:54:00,53.8,46.0,29.90,NNE,24,0.0,9.0,75,0.00,,,0.00,weatherlink.com 1.10,2013-04-08 02:54:00,
2013-04-07 20:09:00,53.0,47.0,29.91,NNE,20,2.0,7.0,81,0.00,,,0.00,weatherlink.com 1.10,2013-04-08 03:09:00,
2013-04-07 20:24:00,51.8,48.0,29.89,NNE,29,0.0,3.0,86,0.00,,,0.00,weatherlink.com 1.10,2013-04-08 03:24:00,
2013-04-07 20:39:00,51.6,49.0,29.88,ENE,62,0.0,5.0,89,0.00,,,0.00,weatherlink.com 1.10,2013-04-08 03:39:00,
2013-04-07 21:09:00,51.4,49.0,29.87,NE,45,2.0,3.0,91,0.00,,,0.00,weatherlink.com 1.10,2013-04-08 04:09:00,
2013-04-07 21:24:00,51.2,49.0,29.86,NNE,20,0.0,5.0,93,0.00,,,0.00,weatherlink.com 1.10,2013-04-08 04:24:00,
2013-04-07 21:40:00,51.3,49.0,29.85,NE,56,0.0,1.0,93,0.01,,,0.01,weatherlink.com 1.10,2013-04-08 04:40:00,
2013-04-07 21:54:00,51.5,50.0,29.84,NNW,346,0.0,0.0,94,0.03,,,0.03,weatherlink.com 1.10,2013-04-08 04:54:00,
2013-04-07 22:10:00,51.6,50.0,29.82,North,354,0.0,1.0,94,0.03,,,0.03,weatherlink.com 1.10,2013-04-08 05:10:00,
2013-04-07 22:25:00,51.7,50.0,29.82,NE,45,1.0,2.0,94,0.07,,,0.07,weatherlink.com 1.10,2013-04-08 05:25:00,
2013-04-07 22:40:00,52.1,51.0,29.80,NNE,31,0.0,2.0,95,0.11,,,0.12,weatherlink.com 1.10,2013-04-08 05:40:00,
2013-04-07 22:55:00,53.2,51.0,29.78,ESE,113,1.0,14.0,93,0.09,,,0.12,weatherlink.com 1.10,2013-04-08 05:55:00,
2013-04-07 23:10:00,53.3,51.0,29.79,NE,34,1.0,13.0,90,0.09,,,0.12,weatherlink.com 1.10,2013-04-08 06:10:00,
2013-04-07 23:25:00,52.8,49.0,29.79,NW,313,9.0,12.0,86,0.06,,,0.13,weatherlink.com 1.10,2013-04-08 06:25:00,
2013-04-07 23:40:00,51.5,47.0,29.80,NNE,30,10.0,22.0,83,0.02,,,0.14,weatherlink.com 1.10,2013-04-08 06:40:00,
2013-04-07 23:55:00,50.1,45.0,29.80,NNE,27,6.0,17.0,83,0.02,,,0.14,weatherlink.com 1.10,2013-04-08 06:55:00,